{"data":{"norad_id":67296,"intl_designator":"2025-313BA","name":"SITRO-AIS-62","alt_names":[],"object_type":"PAYLOAD","status":"ACTIVE","operator":null,"country":"CIS","launch_date":"2025-12-28","launch_site_code":"VOSTO","launch_vehicle":null,"mission":null,"orbit_class":"UNKNOWN","rcs_meters":null,"size_class":null,"mass_kg":null,"dimensions":null,"purposes":[],"wikipedia_slug":null,"has_3d_model":false,"image_url":null,"decayed_at":null,"tle_current":{"epoch":"2026-09-20T22:26:33.184320Z","epoch_age_seconds":65428,"freshness":"FRESH","line1":"1 67296U 25313BA  26263.93510630  .00006282  00000+0  24131-3 0  9991","line2":"2 67296  97.3866 337.9821 0008802  28.3203 331.8513 15.26760552 40580","mean_motion":15.26760552,"eccentricity":0.0008802,"inclination_deg":97.3866,"raan_deg":337.9821,"arg_perigee_deg":28.3203,"mean_anomaly_deg":331.8513,"bstar":0.00024131,"rev_number":4058,"period_min":94.317343876461,"perigee_km":479.46253882212,"apogee_km":491.54529228987,"semimajor_km":6863.640915556,"source":"CELESTRAK","updated_at":"2026-09-21T09:00:16.551539Z"}}}